Tracking 21992 objects as of 27-Nov-2020
HD Live streaming from Space Station
objects crossing your sky now

HINCUBE

Track HINCUBE now!
10-day predictions
HINCUBE is classified as:


NORAD ID: 39445
Int'l Code: 2013-066AF
Perigee: 588.4 km
Apogee: 671.5 km
Inclination: 97.6 °
Period: 97.2 minutes
Semi major axis: 7000 km
RCS: Unknown
Launch date: November 21, 2013
Source: Norway (NOR)
Launch site: Orenburg, Russia (OREN)

Uplink (MHz):
Downlink (MHz): 437.305
Beacon (MHz):
Mode:
Call sign:
Status: Inactive

aabbcc
Your satellite tracking list
Your tracking list is empty




NASA's NSSDC Master Catalog

Two Line Element Set (TLE):
1 39445U 13066AF  20331.91195669 +.00000583 +00000-0 +77454-4 0  9993
2 39445 097.5696 323.1606 0059348 098.0208 262.7746 14.82073764377380
Source of the keplerian elements: AFSPC